CW0621 Weather Reports


Display with metric or nautical units.
time (UTC)temp
F
wind
direction
speed
MPH
gust
MPH
rain 1hr
in
rain 24hr
in
rain mn
in
humidity
%
barometer
mb
20260507040013 45 157 0.0 0.0 0.00 0.00 0.00 66 1014.0
20260507034547 45 114 0.0 0.0 0.00 0.00 0.00 67 1014.0
20260507033012 45 114 0.0 0.0 0.00 0.00 0.00 68 1014.0
20260507031542 45 114 0.0 0.0 0.00 0.00 0.00 66 1014.1
20260507030008 46 114 0.0 0.0 0.00 0.00 0.00 65 1014.0
20260507024536 46 114 0.0 0.0 0.00 0.00 0.00 62 1014.0
20260507023002 47 114 0.0 0.0 0.00 0.00 0.00 61 1014.1
20260507021533 47 114 0.0 0.0 0.00 0.00 0.00 57 1014.1
20260507020107 48 114 0.0 0.0 0.00 0.00 0.00 57 1014.0
20260507014528 48 226 0.0 0.0 0.00 0.00 0.00 58 1013.9
20260507013055 48 145 0.0 0.0 0.00 0.00 0.00 57 1013.8
20260507011528 49 145 0.0 0.0 0.00 0.00 0.00 55 1013.6
20260507004517 50 212 0.0 0.0 0.00 0.01 0.00 50 1013.5
20260507003050 50 212 0.0 0.0 0.00 0.01 0.00 48 1013.4
20260507001513 51 110 0.0 0.0 0.00 0.01 0.00 47 1013.4
20260507000043 51 123 0.0 0.0 0.00 0.04 0.00 43 1013.3
20260506234507 51 55 0.0 0.0 0.00 0.04 0.00 46 1013.3
20260506233039 51 39 0.0 0.0 0.00 0.04 0.00 48 1013.5
20260506231512 51 96 0.0 0.0 0.00 0.04 0.00 48 1013.4
20260506230042 52 77 0.0 0.0 0.00 0.04 0.00 44 1013.4
20260506224507 52 49 0.0 6.0 0.00 0.04 0.00 44 1013.4
20260506223037 52 104 0.0 1.0 0.00 0.04 0.00 45 1013.3
20260506221600 53 205 0.0 2.0 0.00 0.04 0.00 43 1013.3
20260506220033 53 178 0.0 3.0 0.00 0.04 0.00 43 1013.3
20260506214554 53 60 0.0 3.0 0.00 0.04 0.00 43 1013.2
20260506213020 54 11 0.0 4.0 0.00 0.04 0.00 44 1013.2
20260506211549 54 229 0.0 1.0 0.00 0.04 0.00 40 1013.3
20260506210018 55 164 0.0 3.0 0.00 0.04 0.00 43 1013.2
20260506204545 55 57 0.0 3.0 0.00 0.04 0.00 42 1013.0
20260506203010 54 58 0.0 2.0 0.00 0.04 0.00 47 1013.1
20260506201544 55 125 0.0 6.0 0.00 0.04 0.00 44 1013.3
20260506200101 56 154 0.0 7.0 0.00 0.04 0.00 42 1013.2
20260506194527 56 201 0.0 6.0 0.00 0.04 0.00 39 1013.3
20260506193055 56 304 0.0 2.0 0.00 0.04 0.00 43 1013.4
20260506191519 55 321 0.0 5.0 0.00 0.04 0.00 45 1013.5
20260506190046 54 49 0.0 3.0 0.00 0.04 0.00 43 1013.5
20260506184513 54 188 0.0 2.0 0.00 0.04 0.00 43 1013.8
20260506183041 54 56 0.0 2.0 0.00 0.04 0.00 45 1013.7
20260506181506 54 18 0.0 0.0 0.00 0.04 0.00 50 1013.7
20260506180031 53 198 0.0 3.0 0.00 0.04 0.00 42 1013.6
20260506174600 53 52 0.0 0.0 0.00 0.04 0.00 45 1013.5
20260506173025 53 325 0.0 5.0 0.00 0.04 0.00 43 1013.5
20260506171556 53 354 0.0 4.0 0.00 0.04 0.00 45 1013.8
20260506170015 52 84 0.0 0.0 0.00 0.04 0.00 45 1013.7
20260506164539 52 27 0.0 2.0 0.00 0.04 0.00 44 1014.0
20260506163006 51 345 0.0 0.0 0.00 0.04 0.00 46 1014.0
20260506161540 50 63 0.0 1.0 0.00 0.04 0.00 48 1014.2
20260506154530 50 24 0.0 4.0 0.00 0.04 0.00 52 1014.0
20260506153049 50 37 0.0 6.0 0.00 0.04 0.00 49 1013.7
20260506151512 49 39 0.0 7.0 0.00 0.04 0.00 48 1013.9
20260506150040 49 28 0.0 7.0 0.00 0.04 0.00 50 1013.6
20260506144502 50 30 0.0 4.0 0.00 0.04 0.00 48 1013.5
20260506143026 49 15 0.0 0.0 0.00 0.04 0.00 52 1013.3
20260506141556 48 23 0.0 4.0 0.00 0.04 0.00 55 1013.3
20260506140015 47 62 0.0 1.0 0.00 0.04 0.00 54 1013.0
20260506134543 47 334 0.0 0.0 0.00 0.04 0.00 54 1013.0
20260506133006 46 7 0.0 1.0 0.00 0.04 0.00 60 1012.9
20260506131534 46 338 0.0 0.0 0.00 0.04 0.00 61 1012.6
20260506130057 44 48 0.0 0.0 0.00 0.04 0.00 64 1012.6
20260506124522 44 19 0.0 0.0 0.00 0.04 0.00 65 1012.6
20260506123049 43 38 0.0 0.0 0.00 0.04 0.00 66 1012.6
20260506121514 43 32 0.0 0.0 0.00 0.04 0.00 69 1012.3
20260506120047 43 56 0.0 0.0 0.00 0.04 0.00 71 1012.1
20260506114507 42 54 0.0 0.0 0.00 0.04 0.00 74 1011.7
20260506113034 41 44 0.0 0.0 0.00 0.04 0.00 76 1011.3
20260506111600 40 29 0.0 0.0 0.00 0.04 0.00 79 1011.2
20260506110027 40 29 0.0 0.0 0.00 0.04 0.00 78 1011.1
20260506104551 41 29 0.0 0.0 0.00 0.04 0.00 77 1010.9
20260506103020 41 28 0.0 0.0 0.00 0.04 0.00 75 1010.8
20260506101540 42 1 0.0 0.0 0.00 0.04 0.00 74 1010.6
20260506100005 43 64 0.0 0.0 0.00 0.04 0.00 71 1010.5
20260506094531 43 60 0.0 0.0 0.00 0.04 0.00 72 1010.3
20260506093113 44 16 0.0 0.0 0.00 0.04 0.00 72 1010.4
20260506091529 44 43 0.0 0.0 0.00 0.04 0.00 70 1010.2
20260506090106 44 328 0.0 0.0 0.00 0.04 0.00 70 1010.0
20260506084526 44 13 0.0 0.0 0.00 0.04 0.00 69 1009.9
20260506083056 44 325 0.0 0.0 0.00 0.04 0.00 71 1009.7
20260506081523 44 47 0.0 0.0 0.00 0.04 0.00 75 1009.4
20260506073049 44 91 0.0 0.0 0.00 0.04 0.00 83 1009.5
20260506071513 43 94 0.0 0.0 0.00 0.04 0.00 86 1009.4
20260506061603 43 94 0.0 0.0 0.00 0.04 0.00 92 1009.6
20260506044538 44 75 0.0 0.0 0.00 0.13 0.00 93 1009.4
20260506043003 44 75 0.0 0.0 0.00 0.13 0.00 92 1009.3
20260506041532 44 75 0.0 0.0 0.00 0.13 0.00 92 1009.4